Prudenville, MI

8:10 AM EST on February 19, 2017 (GMT -0500)
Roscommon County

Weather History for KHTL - February, 2014

Change the Weather History Date:

Saturday, February 15, 2014

  Actual Average Record
Temperature  
Mean Temperature 9 °F 20 °F  
Max Temperature 19 °F 29 °F 51 °F (1954)
Min Temperature -1 °F 10 °F -29 °F (1943)
Degree Days  
Heating Degree Days 56 45  
Month to date heating degree days 835 695  
Since 1 July heating degree days 5770 5307  
Moisture  
Dew Point 0 °F    
Average Humidity 72    
Maximum Humidity 95    
Minimum Humidity 49    
Precipitation  
Precipitation 0.00 in 0.04 in 0.31 in (1990)
Month to date precipitation 0.33 0.58  
Year to date precipitation 1.94 2.09  
Snow  
Snow 0.00 in 0.40 in 6.00 in (1992)
Month to date snowfall 4.1 7.0  
Since 1 July snowfall 44.4 49.1  
Snow Depth 19.00 in    
Sea Level Pressure  
Sea Level Pressure 29.97 in    
Wind  
Wind Speed 6 mph (WNW)    
Max Wind Speed 13 mph    
Max Gust Speed 15 mph    
Visibility 10 miles    
Events      
T = Trace of Precipitation, MM = Missing Value Source: NWS Daily Summary

Daily Weather History Graph

Daily Weather History Graph

Search for Another Location

Airport or City:

Trip Planner

Search our weather history database for the weather conditions in past years. The results will help you decide how hot, cold, wet, or windy it might be!

Date:

Astronomy

Feb. 15, 2014 Rise Set
Actual Time 7:38 AM EST 6:07 PM EST
Civil Twilight 7:08 AM EST 6:37 PM EST
Nautical Twilight 6:34 AM EST 7:11 PM EST
Astronomical Twilight 6:01 AM EST 7:45 PM EST
Moon 7:11 PM EST (2/15) 7:33 AM EST (2/15)
Length of Visible Light 11h 29m
Length of Day
10h 29m
Full, 100% of the Moon is Illuminated
Feb 15
Full
Feb 22
Last Quarter
Mar 1
New
Mar 8
First Quarter
Mar 16
Full

Hourly Weather History & Observations

Time (EST) Temp. Windchill Dew Point Humidity Pressure Visibility Wind Dir Wind Speed Gust Speed Precip Events Conditions
12:53 AM 1.0 °F -10.3 °F -2.9 °F 83% 29.88 in 10.0 mi WNW 5.8 mph - N/A   Clear
1:53 AM 1.0 °F -12.9 °F -2.9 °F 83% 29.88 in 10.0 mi NW 8.1 mph - N/A   Scattered Clouds
2:03 AM -0.0 °F -14.2 °F -2.9 °F 88% 29.81 in 10.0 mi NW 8.1 mph - N/A   Mostly Cloudy
2:36 AM -0.0 °F -15.3 °F -2.9 °F 88% 29.82 in 10.0 mi NW 9.2 mph - N/A   Scattered Clouds
2:53 AM -0.0 °F -13.0 °F -2.9 °F 88% 29.90 in 10.0 mi NW 6.9 mph - N/A   Partly Cloudy
3:16 AM -0.0 °F -11.6 °F -2.9 °F 88% 29.83 in 10.0 mi WNW 5.8 mph - N/A   Mostly Cloudy
3:53 AM -0.0 °F -11.6 °F -2.9 °F 88% 29.91 in 10.0 mi WNW 5.8 mph - N/A   Overcast
4:53 AM 1.9 °F -9.2 °F -0.9 °F 88% 29.94 in 10.0 mi WNW 5.8 mph - N/A   Overcast
5:17 AM 3.0 °F -8.0 °F -0.9 °F 84% 29.88 in 10.0 mi NW 5.8 mph - N/A   Overcast
5:27 AM 3.9 °F -6.9 °F -0.0 °F 84% 29.88 in 10.0 mi WNW 5.8 mph - N/A   Overcast
5:53 AM 3.9 °F -8.2 °F -0.0 °F 84% 29.95 in 10.0 mi WNW 6.9 mph - N/A   Overcast
6:53 AM 1.9 °F -10.6 °F -2.0 °F 83% 29.98 in 10.0 mi WNW 6.9 mph - N/A   Overcast
7:31 AM -0.0 °F -13.0 °F -2.9 °F 88% 29.91 in 10.0 mi WNW 6.9 mph - N/A   Scattered Clouds
7:53 AM -0.0 °F -11.6 °F -4.0 °F 83% 30.01 in 10.0 mi WNW 5.8 mph - N/A   Clear
8:23 AM -0.0 °F -11.6 °F -2.9 °F 88% 29.93 in 10.0 mi NW 5.8 mph - N/A   Mostly Cloudy
8:53 AM 1.0 °F -8.7 °F -2.0 °F 87% 30.02 in 10.0 mi WNW 4.6 mph - N/A   Scattered Clouds
9:53 AM 6.1 °F -8.7 °F -0.0 °F 76% 30.03 in 10.0 mi NNW 10.4 mph - N/A   Clear
10:53 AM 9.0 °F -0.9 °F 1.9 °F 73% 30.04 in 10.0 mi Variable 5.8 mph - N/A   Clear
11:53 AM 10.9 °F -2.6 °F 1.9 °F 67% 30.05 in 10.0 mi West 10.4 mph - N/A   Clear
12:53 PM 14.0 °F 3.9 °F 3.0 °F 62% 30.03 in 10.0 mi West 6.9 mph - N/A   Clear
1:53 PM 16.0 °F 4.4 °F 3.0 °F 57% 30.02 in 10.0 mi West 9.2 mph - N/A   Clear
2:53 PM 18.0 °F 7.7 °F 3.9 °F 54% 30.01 in 10.0 mi West 8.1 mph - N/A   Clear
3:53 PM 19.0 °F 10.0 °F 3.9 °F 52% 30.01 in 10.0 mi WSW 6.9 mph - N/A   Clear
4:53 PM 19.0 °F 12.3 °F 3.0 °F 50% 30.01 in 10.0 mi West 4.6 mph - N/A   Overcast
5:53 PM 18.0 °F 11.1 °F 3.9 °F 54% 30.04 in 10.0 mi West 4.6 mph - N/A   Overcast
6:53 PM 15.1 °F - 5.0 °F 64% 30.05 in 10.0 mi Calm Calm - N/A   Overcast
7:53 PM 14.0 °F - 3.9 °F 64% 30.06 in 10.0 mi Calm Calm - N/A   Overcast
8:53 PM 14.0 °F 5.1 °F 3.9 °F 64% 30.05 in 10.0 mi ENE 5.8 mph - N/A   Scattered Clouds
9:53 PM 12.9 °F - 3.0 °F 65% 30.05 in 10.0 mi Calm Calm - N/A   Mostly Cloudy
10:53 PM 12.9 °F 6.9 °F 5.0 °F 71% 30.05 in 10.0 mi NE 3.5 mph - N/A   Overcast
11:53 PM 12.9 °F 5.2 °F 5.0 °F 71% 30.03 in 10.0 mi East 4.6 mph - N/A   Overcast